SAS649 ESGG-EKCH

Flight info

Callsign SAS649
Flight time 0h 27m
Altitude 21000
Route TOPLA L996 ERNOV
Aircraft A320/M-SDE3FGHIRWY/LB1

Departure

Time 2026-05-06 20:40
Airport Göteborg Landvetter Airport (ESGG)

Arrival

Time 2026-05-06 21:07
Airport Copenhagen Kastrup Airport (EKCH)
Time Latitude Longitude Altitude Speed Heading
2026-05-06 19:45 57.66933 12.29465 511 ft 0 kts 116°
2026-05-06 20:28 57.66936 12.29453 516 ft 2 kts 116°
2026-05-06 20:29 57.66943 12.29426 516 ft 2 kts 116°
2026-05-06 20:29 57.66950 12.29398 516 ft 2 kts 116°
2026-05-06 20:29 57.66957 12.29370 516 ft 2 kts 149°
2026-05-06 20:29 57.66971 12.29363 516 ft 0 kts 207°
2026-05-06 20:35 57.66960 12.29352 516 ft 6 kts 208°
2026-05-06 20:35 57.66917 12.29297 516 ft 9 kts 204°
2026-05-06 20:35 57.66851 12.29235 516 ft 13 kts 206°
2026-05-06 20:36 57.66774 12.29150 516 ft 10 kts 239°
2026-05-06 20:36 57.66802 12.29013 516 ft 12 kts 319°
2026-05-06 20:36 57.66893 12.29048 516 ft 16 kts 27°
2026-05-06 20:36 57.67001 12.29150 516 ft 19 kts 27°
2026-05-06 20:37 57.67131 12.29272 516 ft 22 kts 26°
2026-05-06 20:37 57.67254 12.29378 516 ft 17 kts 24°
2026-05-06 20:37 57.67372 12.29480 516 ft 20 kts 26°
2026-05-06 20:37 57.67503 12.29591 516 ft 18 kts 14°
2026-05-06 20:38 57.67571 12.29484 516 ft 15 kts 293°
2026-05-06 20:38 57.67589 12.29278 516 ft 18 kts 257°
2026-05-06 20:38 57.67529 12.29106 516 ft 16 kts 204°
2026-05-06 20:38 57.67413 12.29007 515 ft 20 kts 205°
2026-05-06 20:39 57.67275 12.28878 515 ft 25 kts 207°
2026-05-06 20:39 57.66937 12.28570 513 ft 91 kts 206°
2026-05-06 20:39 57.66178 12.27884 509 ft 149 kts 205°
2026-05-06 20:39 57.65137 12.26963 785 ft 173 kts 206°
2026-05-06 20:40 57.63999 12.25982 1372 ft 187 kts 206°
2026-05-06 20:40 57.62788 12.24893 1972 ft 201 kts 207°
2026-05-06 20:40 57.61475 12.23707 2573 ft 219 kts 206°
2026-05-06 20:40 57.60049 12.22552 3264 ft 237 kts 197°
2026-05-06 20:41 57.58349 12.22069 3972 ft 255 kts 184°
2026-05-06 20:41 57.56564 12.21995 5036 ft 258 kts 181°
2026-05-06 20:41 57.54766 12.22357 6097 ft 264 kts 166°
2026-05-06 20:41 57.52978 12.23202 7079 ft 267 kts 169°
2026-05-06 20:42 57.51137 12.23857 8035 ft 271 kts 172°
2026-05-06 20:42 57.49257 12.24409 8972 ft 276 kts 173°
2026-05-06 20:42 57.47334 12.24919 9722 ft 283 kts 173°
2026-05-06 20:42 57.45375 12.25423 9925 ft 284 kts 173°
2026-05-06 20:43 57.43382 12.25939 9978 ft 302 kts 173°
2026-05-06 20:43 57.41259 12.26493 10424 ft 317 kts 173°
2026-05-06 20:43 57.39058 12.27073 11195 ft 322 kts 173°
2026-05-06 20:43 57.36822 12.27667 11977 ft 327 kts 173°
2026-05-06 20:44 57.34555 12.28275 12760 ft 332 kts 173°
2026-05-06 20:44 57.32251 12.28897 13529 ft 337 kts 173°
2026-05-06 20:44 57.29915 12.29530 14227 ft 342 kts 174°
2026-05-06 20:44 57.27546 12.30168 14935 ft 345 kts 174°
2026-05-06 20:45 57.25157 12.30807 15652 ft 349 kts 174°
2026-05-06 20:45 57.22748 12.31449 16373 ft 352 kts 175°
2026-05-06 20:45 57.20350 12.32087 17070 ft 355 kts 175°
2026-05-06 20:45 57.17893 12.32737 17793 ft 358 kts 175°
2026-05-06 20:46 57.15417 12.33392 18474 ft 361 kts 175°
2026-05-06 20:46 57.12921 12.34055 19132 ft 364 kts 176°
2026-05-06 20:46 57.10406 12.34706 19810 ft 366 kts 176°
2026-05-06 20:46 57.07880 12.35336 20500 ft 368 kts 176°
2026-05-06 20:47 57.05336 12.35958 20874 ft 369 kts 177°
2026-05-06 20:47 57.02798 12.36576 20951 ft 365 kts 177°
2026-05-06 20:47 57.00367 12.37179 20977 ft 353 kts 177°
2026-05-06 20:47 56.97941 12.37784 20987 ft 351 kts 177°
2026-05-06 20:48 56.95524 12.38383 20984 ft 350 kts 177°
2026-05-06 20:48 56.93114 12.38975 20989 ft 350 kts 177°
2026-05-06 20:48 56.90704 12.39565 20989 ft 350 kts 177°
2026-05-06 20:48 56.88295 12.40154 20982 ft 349 kts 177°
2026-05-06 20:49 56.85882 12.40743 20990 ft 350 kts 177°
2026-05-06 20:49 56.83473 12.41330 20990 ft 349 kts 177°
2026-05-06 20:49 56.81060 12.41917 20993 ft 350 kts 177°
2026-05-06 20:49 56.78684 12.42500 20992 ft 350 kts 177°
2026-05-06 20:50 56.76270 12.43096 21001 ft 350 kts 177°
2026-05-06 20:50 56.73859 12.43690 20983 ft 350 kts 177°
2026-05-06 20:50 56.71444 12.44281 20989 ft 353 kts 177°
2026-05-06 20:50 56.68965 12.44879 20997 ft 363 kts 177°
2026-05-06 20:51 56.66453 12.45489 20998 ft 365 kts 177°
2026-05-06 20:51 56.63930 12.46104 20993 ft 366 kts 176°
2026-05-06 20:51 56.61403 12.46721 20992 ft 366 kts 177°
2026-05-06 20:51 56.58877 12.47334 20997 ft 366 kts 177°
2026-05-06 20:52 56.56347 12.47946 20998 ft 366 kts 177°
2026-05-06 20:52 56.53855 12.48550 20990 ft 366 kts 177°
2026-05-06 20:52 56.51345 12.49159 20942 ft 359 kts 177°
2026-05-06 20:52 56.48911 12.49753 20226 ft 349 kts 176°
2026-05-06 20:53 56.46518 12.50331 19352 ft 346 kts 176°
2026-05-06 20:53 56.44145 12.50898 18510 ft 343 kts 176°
2026-05-06 20:53 56.41787 12.51463 17596 ft 340 kts 175°
2026-05-06 20:53 56.39454 12.52027 16699 ft 337 kts 175°
2026-05-06 20:54 56.37143 12.52582 15846 ft 333 kts 175°
2026-05-06 20:54 56.34883 12.53121 15021 ft 330 kts 174°
2026-05-06 20:54 56.32616 12.53659 14210 ft 327 kts 175°
2026-05-06 20:54 56.30369 12.54191 13466 ft 323 kts 175°
2026-05-06 20:55 56.28195 12.54711 13055 ft 307 kts 174°
2026-05-06 20:55 56.26127 12.55207 12675 ft 293 kts 175°
2026-05-06 20:55 56.24145 12.55677 12312 ft 281 kts 174°
2026-05-06 20:55 56.22247 12.56122 11966 ft 271 kts 174°
2026-05-06 20:56 56.20380 12.56559 11622 ft 271 kts 175°
2026-05-06 20:56 56.18508 12.56999 11276 ft 270 kts 174°
2026-05-06 20:56 56.16644 12.57071 10940 ft 268 kts 187°
2026-05-06 20:56 56.14756 12.56383 10765 ft 284 kts 196°
2026-05-06 20:57 56.12861 12.55488 10573 ft 286 kts 195°
2026-05-06 20:57 56.10938 12.54647 10222 ft 290 kts 189°
2026-05-06 20:57 56.08893 12.54881 9749 ft 294 kts 164°
2026-05-06 20:57 56.07047 12.56387 9407 ft 291 kts 152°
2026-05-06 20:58 56.05271 12.58111 9011 ft 290 kts 152°
2026-05-06 20:58 56.03499 12.59855 8597 ft 290 kts 151°
2026-05-06 20:58 56.01731 12.61608 8177 ft 291 kts 150°
2026-05-06 20:58 55.99965 12.63358 7822 ft 290 kts 150°
2026-05-06 20:59 55.98203 12.65103 7468 ft 288 kts 150°
2026-05-06 20:59 55.96467 12.66827 7059 ft 283 kts 150°
2026-05-06 20:59 55.94752 12.68527 6428 ft 281 kts 150°
2026-05-06 20:59 55.93068 12.70187 5773 ft 279 kts 150°
2026-05-06 21:00 55.91374 12.71854 5165 ft 276 kts 149°
2026-05-06 21:00 55.89714 12.73484 4696 ft 267 kts 149°
2026-05-06 21:00 55.88163 12.75050 4554 ft 246 kts 143°
2026-05-06 21:00 55.87003 12.77151 4091 ft 237 kts 126°
2026-05-06 21:01 55.85835 12.79028 3931 ft 222 kts 154°
2026-05-06 21:01 55.84409 12.79945 3799 ft 214 kts 160°
2026-05-06 21:01 55.83032 12.80787 3674 ft 205 kts 159°
2026-05-06 21:01 55.81703 12.81629 3544 ft 202 kts 158°
2026-05-06 21:02 55.80393 12.82491 3415 ft 200 kts 158°
2026-05-06 21:02 55.79115 12.83357 3292 ft 199 kts 157°
2026-05-06 21:02 55.77830 12.84244 3162 ft 198 kts 157°
2026-05-06 21:02 55.76545 12.85133 3031 ft 198 kts 159°
2026-05-06 21:03 55.75188 12.85421 2898 ft 200 kts 187°
2026-05-06 21:03 55.73911 12.84463 2768 ft 203 kts 216°
2026-05-06 21:03 55.72842 12.82829 2643 ft 202 kts 220°
2026-05-06 21:03 55.71813 12.81195 2490 ft 196 kts 219°
2026-05-06 21:04 55.70807 12.79617 2272 ft 188 kts 219°
2026-05-06 21:04 55.69860 12.78138 2076 ft 173 kts 219°
2026-05-06 21:04 55.69020 12.76828 2018 ft 153 kts 218°
2026-05-06 21:04 55.68246 12.75623 2014 ft 145 kts 218°
2026-05-06 21:05 55.67495 12.74350 1565 ft 157 kts 220°
2026-05-06 21:05 55.66651 12.73107 1186 ft 155 kts 217°
2026-05-06 21:05 55.65848 12.71866 870 ft 149 kts 219°
2026-05-06 21:05 55.65091 12.70708 709 ft 139 kts 217°
2026-05-06 21:06 55.64371 12.69594 557 ft 136 kts 220°
2026-05-06 21:06 55.63668 12.68491 393 ft 133 kts 218°
2026-05-06 21:06 55.62971 12.67415 191 ft 132 kts 219°
2026-05-06 21:06 55.62283 12.66338 35 ft 129 kts 219°
2026-05-06 21:07 55.61699 12.65451 23 ft 86 kts 221°
2026-05-06 21:07 55.61346 12.64902 27 ft 51 kts 221°
2026-05-06 21:07 55.61252 12.64613 25 ft 21 kts 249°
2026-05-06 21:07 55.61210 12.64368 24 ft 21 kts 252°
2026-05-06 21:08 55.61212 12.64149 24 ft 18 kts 317°
2026-05-06 21:08 55.61315 12.64152 25 ft 17 kts 33°
2026-05-06 21:08 55.61427 12.64278 25 ft 21 kts 31°
2026-05-06 21:08 55.61559 12.64429 24 ft 24 kts 33°
2026-05-06 21:09 55.61666 12.64553 25 ft 0 kts 33°
2026-05-06 21:09 55.61686 12.64576 26 ft 7 kts 34°
2026-05-06 21:09 55.61739 12.64642 24 ft 11 kts 34°
2026-05-06 21:09 55.61817 12.64731 24 ft 15 kts 33°
2026-05-06 21:10 55.61918 12.64845 24 ft 20 kts 32°
2026-05-06 21:10 55.62042 12.64990 27 ft 23 kts 33°
2026-05-06 21:10 55.62155 12.65119 25 ft 11 kts 30°
2026-05-06 21:10 55.62184 12.65149 25 ft 0 kts 30°
2026-05-06 21:11 55.62184 12.65150 25 ft 1 kts 30°
2026-05-06 21:11 55.62186 12.65152 24 ft 0 kts 30°
2026-05-06 21:13 55.62205 12.65168 26 ft 9 kts 21°
2026-05-06 21:13 55.62279 12.65070 24 ft 20 kts 299°
2026-05-06 21:14 55.62362 12.64847 24 ft 24 kts 303°
2026-05-06 21:14 55.62460 12.64585 24 ft 27 kts 303°
2026-05-06 21:14 55.62551 12.64340 24 ft 21 kts 303°
2026-05-06 21:14 55.62625 12.64277 24 ft 12 kts 30°
2026-05-06 21:15 55.62715 12.64346 25 ft 15 kts 23°
2026-05-06 21:15 55.62761 12.64424 24 ft 6 kts 93°
2026-05-06 21:15 55.62756 12.64465 24 ft 3 kts 100°
2026-05-06 21:15 55.62755 12.64474 24 ft 0 kts 101°